Погода Каменское

Погода Каменское : погода сейчас, прогноз погоды и архив. Всё, что Вы хотите узнать о погоде Каменское!

Поиск расширенной информации на нашем сайте:

Другие новости

Новости СМИ2

Главная страница сайта

Новости сайта

02.10.2013

Напоминаем, что на нашем новом сайте вы можете получить высокодетализированные прогнозы погоды по пунктам России, СНГ и мира (включающие важные для авиации метеовеличины, такие как направление и скорость ветра, видимость, явления погоды, количество и форма облачности, нижняя и верхняя граница облачности), а также ознакомиться с разнообразными материалами по авиационной метеорологии и подборкой полезных ссылок на эту тему.

Сайт Метеоцентр.Азия посвящён разработке технологий оптимизации авиаметеорологического обслуживания, включая проектирование и перспективное создание нескольких автоматизированных авиаметеорологических систем:
- система выпуска высокодетальных прогностических карт явлений погоды для нижнего воздушного пространства по России и ближнему зарубежью;
- система верификации прогнозов TAF (выпускаемых синоптиками официальных АМСГ РФ и ближнего зарубежья) и AUTOTAF (выпускаемых сайтом Метеоцентр.Азия) - выявление ошибок, онлайн-сопоставление с фактической погодой METAR, автоматическое внесение коррективов в прогнозы при резком отклонении фактической погоды от прогноза, подсчёт оправдываемости прогнозов по элементам и в целом;
- система обработки, анализа и отображения авиаметеорологической информации для применения провайдерами метеорологической информации.


Погода Каменское - сегодня

Время (UTC), дата Ветер
(°,м/с) 
Видим.   Явления Облачность Т
(°С)
Тd
(°С)
f(%) Тe
(°С)
Pmin
(гПа)
dP
(гПа)
Po
(мм)
O2
(г/м3)
Тmin Tmax R s Состояние
почвы
00 24.05.17 030 (СВ) 20000 м    9/9 1000 м 
[Sc]
+5.4 -3.6 52 +4  1010.3  0.5  754  298           
03 24.05.17 080 (В) 20000 м    9/9 1000 м 
[Sc]
+7.1 -3.5 47 +6  1010.3  754  297           
06 24.05.17 090 (В) 20000 м    8/8 600 м 
[Cu Sc]
+7.8 -3.2 46 +8  1010.4  0.1  754  296           
09 24.05.17 280 (З) 20000 м    8/8 1000 м 
[Sc]
+6.5 -2 55 +6  1010.8  0.4  754  297    +8.3       
12 24.05.17 270 (З) 20000 м    8/8 1000 м 
[Sc]
+2.2 -2.3 72 +2  1011  0.4  755  302           
15 24.05.17 240 (ЮЗ) н/о    н/о 
+1.2 -1.9 80 -2  1010.6  -0.4  754  303           
18 24.05.17 260 (З) н/о    н/о 
+2.5 -1.1 77 +2  1010.4  -0.2  754  301           
21 24.05.17 250 (З) 8-12{13}  20000 м    3/3 1000 м 
[Sc]
+6.9 -0.3 60 +4  1009  -1.3  753  296  +0.9      мокрый или
старый снег
10-40% 
00 25.05.17 250 (З) 8-12{15}  20000 м    3/3 1000 м 
[Cu med, cong]
+11.1 -1.9 40 +9  1007.6  -1.4  752  291           
03 25.05.17 270 (З) 8-14{15}  20000 м    3/3 1000 м 
[Sc]
+12.7 -3.2 33 +11  1005.8  -1.7  751  289           
06 25.05.17 270 (З) 6-11{14}  20000 м    8/8 1000 м 
[Sc]
+11.9 -2.9 35 +11  1005.6  -0.2  751  290           
09 25.05.17 270 (З) 4{12}  20000 м    5/5 1000 м 
[Sc]
+8.5 -1.4 50 +7  1006.1  0.4  751  294    +13       
12 25.05.17 240 (ЮЗ) 20000 м    1/1 1000 м 
[Sc]
+2.2 -2.8 69 +1  1006.4  0.2  751  301           
15 25.05.17 250 (З) 5{12}  н/о    н/о 
+0.2 -2.1 85 -3  1006.5  0.1  751  303           
18 25.05.17 270 (З) н/о    н/о 
+1.4 -1.8 79 -1  1006.8  0.2  751  301           
21 25.05.17 260 (З) 20000 м    9/9 300 м 
[St]
+2.4 -1 78 1006.9  0.2  751  300  -0.1      мокрый или
старый снег
10-40% 
00 26.05.17 250 (З) 20000 м    9/9 600 м 
[Sc]
+5.7 -1.4 60 +4  1006.2  -0.6  751  297           
03 26.05.17 250 (З) 20000 м    9/9 1000 м 
[Sc]
+8 -0.3 56 +7  1005.5  -0.7  750  294           
06 26.05.17 250 (З) 3{10}  10 км  слаб. ливневой дождь  10/10 300 м кучево-дожд. 
[Cb cap]
+5.1 +1 75 +4  1005.4  -0.2  750  297           
09 26.05.17 020 (С) 20000 м  {ливн. осадки}  10/10 600 м 
[Sc]
+4.1 +1.1 81 +5  1005.4  750  298    +8  0.7     
12 26.05.17 тихо ()   20000 м  {ливн. осадки}  10/10 1000 м 
[Sc]
+2.3 +0.6 88 +2  1005.1  -0.3  750  300           
15 26.05.17 140 (ЮВ) н/о    н/о 
+2.1 +0 86 +3  1004  -1.1  749  300           
18 26.05.17 120 (ЮВ) н/о    н/о 
+2.9 -0.5 78 +4  1002.9  -1.1  748  298           
21 26.05.17 260 (З) 7-11{12}  20000 м    9/6 1000 м средняя, верхняя 
[Cu Sc|Ac trans|Cc]
+6.8 -2.5 51 +4  1002.2  -0.6  748  294  +1.2      мокрый или
старый снег
10-40% 
00 27.05.17 270 (З) 5{11}  н/о    н/о 
+5.1 +1.4 77 +3  1002.4  0.2  748  296           
Время (UTC), дата Ветер
(°,м/с) 
Видим.   Явления Облачность Т
(°С)
Тd
(°С)
f(%) Тe
(°С)
Pmin
(гПа)
dP
(гПа)
Po
(мм)
O2
(г/м3)
Тmin Tmax R s Состояние
почвы

Для получения пояснительной информации подведите курсор к названию столбца.

ПОГОДА Каменское - архив

Всё, что Вы хотите узнать о погоде Каменское - удобно и подробно!

Выберите нужную дату (начиная с 1 января 2015* года) и нажмите кнопку "Найти".
Будут отображены архивные сводки погоды по пункту Каменское, начиная с указанной даты.


Отображать данные в формате CSV (для использования в таблицах Excel)


Внимание! Наш архив погоды предназначен исключительно для личного некоммерческого использования в познавательных целях. Если Вам необходимы официальные справки о состоянии погоды (для производственных, юридических, коммерческих и т.п. целей), обращайтесь в органы Росгидромета.

*Примечание: данная дата относится к архиву по метеостанциям СССР (Россия, СНГ, Балтия).
Архив по метеостанциям Зарубежной Европы и Азии (кроме Китая) хранится 10 дней, по другим регионам земного шара (Китай, Африка, Америка, Австралия, Океания) - 1 день.

Каменское - район местоположения метеостанции


Название, широта, долгота, высота метеостанции:
Каменское 62.43°ш. 166.08°д. 10 м над ур. моря [Российская Федерация]

Дополнительная информация

В oтличие oт бoльшинства пoгoдных сайтoв мы публикуем пoдрoбную метеoинфoрмацию в детальнoм прoфессиoнальнoм фoрмате.

Характеристики температуры и влажнoсти вoздуха измеряются на высoте 2 м в тени вдали oт зданий и деревьев.
Скoрoсть ветра измеряется на высoте 10 м (на урoвне рoста челoвека скoрoсть ветра ниже в 1.5-2 раза). Если метеoстанция нахoдится в гoрoде или в лесу, тo скoрoсть ветра занижена на 2-4 м/с пo сравнению с oткрытым местoм. Скoрoсть ветра над акватoриями крупных рек и oзёр, а также на вершинах хoлмoв на 2-5 м/с выше, чем в oбычных услoвиях.
Атмoсфернoе давление в разных тoчках местнoсти мoжет значительнo oтличаться oт давления на метеoстанции, в зависимoсти oт услoвий рельефа (при пoдъёме на 10 м давление пoнижается примернo на 1 мм рт.ст.).